• In Romania
  • List of Countries
  • For 7 days
  • Water Temperature
  • Satellite Maps
  • Weather Map
  • Weather Widgets
  • user-avatar
    Login

    Hourly Weather Ganja

    Today, 25 July, Tuesday

    Time Temperature Precipitation Wind Pressure Humidity
    00:00 +25°C° 0.1 mm 4 mps 722 mmHg 64%
    01:00 +25°C° 0 mm 3 mps 722 mmHg 66%
    02:00 +24°C° 0 mm 3 mps 722 mmHg 67%
    03:00 +24°C° 0 mm 3 mps 721 mmHg 68%
    04:00 +24°C° 0 mm 2 mps 721 mmHg 66%
    05:00 +24°C° 0 mm 2 mps 721 mmHg 65%
    06:00 +24°C° 0 mm 1 mps 721 mmHg 64%
    07:00 +26°C° 0 mm 1 mps 721 mmHg 60%
    08:00 +27°C° 0 mm 1 mps 721 mmHg 55%
    09:00 +28°C° 0 mm 2 mps 721 mmHg 51%
    10:00 +30°C° 0 mm 2 mps 721 mmHg 48%
    11:00 +31°C° 0 mm 2 mps 720 mmHg 45%
    12:00 +33°C° 0 mm 3 mps 720 mmHg 42%
    13:00 +34°C° 0.1 mm 3 mps 720 mmHg 40%
    14:00 +34°C° 0.1 mm 3 mps 719 mmHg 39%
    15:00 +35°C° 0.1 mm 3 mps 719 mmHg 37%
    16:00 +35°C° 0.1 mm 3 mps 719 mmHg 38%
    17:00 +34°C° 0.1 mm 3 mps 719 mmHg 39%
    18:00 +34°C° 0.1 mm 3 mps 719 mmHg 40%
    19:00 +32°C° 0.1 mm 2 mps 719 mmHg 43%
    20:00 +31°C° 0.1 mm 2 mps 720 mmHg 45%
    21:00 +29°C° 0.1 mm 1 mps 720 mmHg 48%
    22:00 +29°C° 0 mm 2 mps 720 mmHg 49%
    23:00 +28°C° 0 mm 2 mps 721 mmHg 50%

    Tomorrow, 26 July, Wednesday

    Time Temperature Precipitation Wind Pressure Humidity
    00:00 +27°C° 0 mm 2 mps 721 mmHg 50%
    01:00 +27°C° 0 mm 2 mps 721 mmHg 52%
    02:00 +26°C° 0 mm 2 mps 721 mmHg 54%
    03:00 +25°C° 0 mm 2 mps 720 mmHg 55%
    04:00 +26°C° 0 mm 2 mps 721 mmHg 54%
    05:00 +26°C° 0 mm 2 mps 721 mmHg 53%
    06:00 +26°C° 0 mm 2 mps 721 mmHg 52%
    07:00 +28°C° 0 mm 2 mps 721 mmHg 48%
    08:00 +29°C° 0 mm 2 mps 721 mmHg 44%
    09:00 +31°C° 0 mm 2 mps 721 mmHg 40%
    10:00 +32°C° 0 mm 2 mps 720 mmHg 38%
    11:00 +34°C° 0 mm 2 mps 720 mmHg 36%
    12:00 +35°C° 0 mm 2 mps 720 mmHg 34%
    13:00 +36°C° 0 mm 2 mps 720 mmHg 33%
    14:00 +36°C° 0 mm 2 mps 720 mmHg 32%
    15:00 +37°C° 0 mm 3 mps 719 mmHg 31%
    16:00 +37°C° 0 mm 3 mps 720 mmHg 33%
    17:00 +36°C° 0 mm 3 mps 720 mmHg 34%
    18:00 +36°C° 0 mm 3 mps 720 mmHg 36%
    19:00 +34°C° 0 mm 3 mps 720 mmHg 39%
    20:00 +31°C° 0 mm 3 mps 721 mmHg 42%
    21:00 +29°C° 0 mm 3 mps 721 mmHg 45%
    22:00 +29°C° 0 mm 3 mps 722 mmHg 47%
    23:00 +28°C° 0 mm 3 mps 722 mmHg 48%

    Day after tomorrow, 27 July, Thursday

    Time Temperature Precipitation Wind Pressure Humidity
    00:00 +28°C° 0 mm 3 mps 722 mmHg 49%
    01:00 +27°C° 0 mm 2 mps 722 mmHg 50%
    02:00 +26°C° 0 mm 2 mps 722 mmHg 52%
    03:00 +26°C° 0 mm 1 mps 722 mmHg 53%
    04:00 +26°C° 0 mm 2 mps 722 mmHg 52%
    05:00 +26°C° 0 mm 2 mps 723 mmHg 52%
    06:00 +27°C° 0 mm 2 mps 723 mmHg 51%
    07:00 +28°C° 0 mm 2 mps 723 mmHg 47%
    08:00 +30°C° 0 mm 2 mps 723 mmHg 43%
    09:00 +31°C° 0 mm 2 mps 723 mmHg 39%
    10:00 +32°C° 0 mm 2 mps 723 mmHg 37%
    11:00 +35°C° 0 mm 2 mps 722 mmHg 35%
    12:00 +36°C° 0 mm 2 mps 722 mmHg 32%
    13:00 +37°C° 0 mm 2 mps 722 mmHg 32%
    14:00 +37°C° 0 mm 2 mps 722 mmHg 31%
    15:00 +38°C° 0 mm 3 mps 721 mmHg 30%
    16:00 +38°C° 0 mm 3 mps 721 mmHg 31%
    17:00 +37°C° 0 mm 3 mps 721 mmHg 32%
    18:00 +37°C° 0 mm 3 mps 721 mmHg 33%
    19:00 +35°C° 0 mm 3 mps 722 mmHg 35%
    20:00 +34°C° 0 mm 3 mps 722 mmHg 37%
    21:00 +31°C° 0 mm 3 mps 723 mmHg 40%
    22:00 +30°C° 0 mm 3 mps 723 mmHg 41%
    23:00 +29°C° 0 mm 3 mps 723 mmHg 41%

    28 July, Friday

    Time Temperature Precipitation Wind Pressure Humidity
    00:00 +28°C° 0 mm 3 mps 723 mmHg 42%
    01:00 +28°C° 0 mm 3 mps 723 mmHg 43%
    02:00 +27°C° 0 mm 2 mps 723 mmHg 43%
    03:00 +27°C° 0 mm 2 mps 723 mmHg 43%
    04:00 +27°C° 0 mm 2 mps 723 mmHg 43%
    05:00 +27°C° 0 mm 2 mps 723 mmHg 42%
    06:00 +28°C° 0 mm 2 mps 723 mmHg 42%
    07:00 +29°C° 0 mm 2 mps 723 mmHg 39%
    08:00 +31°C° 0 mm 2 mps 723 mmHg 35%
    09:00 +34°C° 0 mm 2 mps 723 mmHg 32%
    10:00 +35°C° 0 mm 2 mps 722 mmHg 30%
    11:00 +36°C° 0 mm 2 mps 722 mmHg 29%
    12:00 +38°C° 0 mm 2 mps 721 mmHg 27%
    13:00 +38°C° 0 mm 2 mps 721 mmHg 26%
    14:00 +39°C° 0 mm 2 mps 721 mmHg 26%
    15:00 +40°C° 0 mm 3 mps 720 mmHg 25%
    16:00 +39°C° 0 mm 2 mps 720 mmHg 27%
    17:00 +39°C° 0 mm 2 mps 720 mmHg 28%
    18:00 +39°C° 0 mm 2 mps 720 mmHg 30%
    19:00 +37°C° 0 mm 2 mps 721 mmHg 32%
    20:00 +35°C° 0 mm 2 mps 721 mmHg 34%
    21:00 +32°C° 0 mm 2 mps 722 mmHg 36%
    22:00 +31°C° 0 mm 2 mps 722 mmHg 36%
    23:00 +30°C° 0 mm 2 mps 722 mmHg 37%

    29 July, Saturday

    Time Temperature Precipitation Wind Pressure Humidity
    00:00 +30°C° 0 mm 2 mps 722 mmHg 38%
    01:00 +29°C° 0 mm 2 mps 722 mmHg 38%
    02:00 +29°C° 0 mm 2 mps 722 mmHg 39%
    03:00 +28°C° 0 mm 1 mps 722 mmHg 39%
    04:00 +28°C° 0 mm 2 mps 722 mmHg 39%
    05:00 +29°C° 0 mm 2 mps 722 mmHg 38%
    06:00 +29°C° 0 mm 3 mps 722 mmHg 37%
    07:00 +31°C° 0 mm 3 mps 722 mmHg 34%
    08:00 +35°C° 0 mm 4 mps 722 mmHg 30%
    09:00 +37°C° 0 mm 4 mps 722 mmHg 26%
    10:00 +38°C° 0 mm 4 mps 722 mmHg 25%
    11:00 +40°C° 0 mm 4 mps 721 mmHg 23%
    12:00 +42°C° 0 mm 4 mps 721 mmHg 21%
    13:00 +42°C° 0 mm 3 mps 721 mmHg 21%
    14:00 +43°C° 0 mm 3 mps 721 mmHg 20%
    15:00 +43°C° 0 mm 3 mps 720 mmHg 19%
    16:00 +43°C° 0 mm 3 mps 720 mmHg 21%
    17:00 +42°C° 0 mm 3 mps 721 mmHg 23%
    18:00 +40°C° 0 mm 3 mps 721 mmHg 24%
    19:00 +38°C° 0 mm 3 mps 722 mmHg 30%
    20:00 +35°C° 0 mm 4 mps 722 mmHg 35%
    21:00 +33°C° 0 mm 5 mps 723 mmHg 41%
    22:00 +32°C° 0 mm 5 mps 723 mmHg 44%
    23:00 +30°C° 0 mm 5 mps 724 mmHg 46%

    30 July, Sunday

    Time Temperature Precipitation Wind Pressure Humidity
    00:00 +29°C° 0 mm 5 mps 724 mmHg 49%
    01:00 +29°C° 0 mm 5 mps 724 mmHg 50%
    02:00 +28°C° 0 mm 5 mps 724 mmHg 51%
    03:00 +28°C° 0 mm 4 mps 725 mmHg 53%
    04:00 +28°C° 0 mm 4 mps 725 mmHg 53%
    05:00 +28°C° 0 mm 4 mps 725 mmHg 53%
    06:00 +28°C° 0 mm 4 mps 725 mmHg 54%
    07:00 +30°C° 0 mm 4 mps 725 mmHg 48%
    08:00 +32°C° 0 mm 5 mps 725 mmHg 43%
    09:00 +34°C° 0 mm 5 mps 725 mmHg 38%
    10:00 +35°C° 0 mm 4 mps 725 mmHg 35%
    11:00 +36°C° 0 mm 4 mps 725 mmHg 33%
    12:00 +37°C° 0 mm 3 mps 724 mmHg 31%
    13:00 +38°C° 0 mm 3 mps 724 mmHg 30%
    14:00 +38°C° 0 mm 2 mps 724 mmHg 29%
    15:00 +38°C° 0 mm 2 mps 724 mmHg 29%
    16:00 +38°C° 0 mm 2 mps 724 mmHg 30%
    17:00 +38°C° 0 mm 2 mps 724 mmHg 31%
    18:00 +36°C° 0 mm 1 mps 724 mmHg 32%
    19:00 +35°C° 0 mm 2 mps 725 mmHg 36%
    20:00 +34°C° 0 mm 3 mps 725 mmHg 40%
    21:00 +32°C° 0 mm 4 mps 726 mmHg 44%
    22:00 +30°C° 0 mm 3 mps 726 mmHg 46%
    23:00 +29°C° 0 mm 3 mps 726 mmHg 49%
    Show more